Year,Month,Day,Hour,Minute,Value (Times are PST for temperature in C)
2016,09,18,07,27,9.80
2016,09,18,07,28,9.80
2016,09,18,07,29,9.80
2016,09,18,07,30,9.90
2016,09,18,07,31,9.90
2016,09,18,07,32,10.00
2016,09,18,07,33,10.00
2016,09,18,07,34,10.10
2016,09,18,07,35,10.10
2016,09,18,07,36,10.20
2016,09,18,07,37,10.30
2016,09,18,07,38,10.30
2016,09,18,07,39,10.40
2016,09,18,07,40,10.40
2016,09,18,07,41,10.50
2016,09,18,07,42,10.50
2016,09,18,07,43,10.60
2016,09,18,07,44,10.60
2016,09,18,07,45,10.70
2016,09,18,07,46,10.70
2016,09,18,07,47,10.70
2016,09,18,07,48,10.70
2016,09,18,07,49,10.80
2016,09,18,07,50,10.80
2016,09,18,07,51,10.80
2016,09,18,07,52,10.90
2016,09,18,07,53,11.00
2016,09,18,07,54,11.00
2016,09,18,07,55,11.10
2016,09,18,07,56,11.20
2016,09,18,07,57,11.40
2016,09,18,07,58,11.50
2016,09,18,07,59,11.60
2016,09,18,08,00,11.80
2016,09,18,08,01,11.90
2016,09,18,08,02,11.90
2016,09,18,08,03,12.00
2016,09,18,08,04,12.10
2016,09,18,08,05,12.20
2016,09,18,08,06,12.30
2016,09,18,08,07,12.30
2016,09,18,08,08,12.40
2016,09,18,08,09,12.50
2016,09,18,08,10,12.50
2016,09,18,08,11,12.60
2016,09,18,08,12,12.70
2016,09,18,08,13,12.80
2016,09,18,08,14,12.90
2016,09,18,08,15,13.00
2016,09,18,08,16,13.10
2016,09,18,08,17,13.20
2016,09,18,08,18,13.30
2016,09,18,08,19,13.50
2016,09,18,08,20,13.60
2016,09,18,08,21,13.70
2016,09,18,08,22,13.80
2016,09,18,08,23,13.80
2016,09,18,08,24,13.90
2016,09,18,08,25,14.00
2016,09,18,08,26,14.00
2016,09,18,08,27,14.10
2016,09,18,08,28,14.10
2016,09,18,08,29,14.10
2016,09,18,08,30,14.10
2016,09,18,08,31,14.10
2016,09,18,08,32,14.10
2016,09,18,08,33,14.10
2016,09,18,08,34,14.10
2016,09,18,08,35,14.10
2016,09,18,08,36,14.10
2016,09,18,08,37,14.10
2016,09,18,08,38,14.10
2016,09,18,08,39,14.10
2016,09,18,08,40,14.10
2016,09,18,08,41,14.10
2016,09,18,08,42,14.10
2016,09,18,08,43,14.10
2016,09,18,08,44,14.10
2016,09,18,08,45,14.10
2016,09,18,08,46,14.10
2016,09,18,08,47,14.10
2016,09,18,08,48,14.10
2016,09,18,08,49,14.20
2016,09,18,08,50,14.20
2016,09,18,08,51,14.20
2016,09,18,08,52,14.20
2016,09,18,08,53,14.30
2016,09,18,08,54,14.30
2016,09,18,08,55,14.40
2016,09,18,08,56,14.50
2016,09,18,08,57,14.50
2016,09,18,08,58,14.60
2016,09,18,08,59,14.70
2016,09,18,09,00,14.80
2016,09,18,09,01,14.80
2016,09,18,09,02,14.90
2016,09,18,09,03,15.00
2016,09,18,09,04,15.10
2016,09,18,09,05,15.20
2016,09,18,09,06,15.30
2016,09,18,09,07,15.40
2016,09,18,09,08,15.50
2016,09,18,09,09,15.60
2016,09,18,09,10,15.60
2016,09,18,09,11,15.70
2016,09,18,09,12,15.80
2016,09,18,09,13,15.90
2016,09,18,09,14,16.00
2016,09,18,09,15,16.10
2016,09,18,09,16,16.30
2016,09,18,09,17,16.40
2016,09,18,09,18,16.50
2016,09,18,09,19,16.70
2016,09,18,09,20,16.80
2016,09,18,09,21,16.90
2016,09,18,09,22,17.00
2016,09,18,09,23,17.10
2016,09,18,09,24,17.20
2016,09,18,09,25,17.30
2016,09,18,09,26,17.40
2016,09,18,09,27,17.50
2016,09,18,09,28,17.60
2016,09,18,09,29,17.60
2016,09,18,09,30,17.60
2016,09,18,09,31,17.60
2016,09,18,09,32,17.60
2016,09,18,09,33,17.50
2016,09,18,09,34,17.60
2016,09,18,09,35,17.60
2016,09,18,09,36,17.60
2016,09,18,09,37,17.60
2016,09,18,09,38,17.60
2016,09,18,09,39,17.70
2016,09,18,09,40,17.80
2016,09,18,09,41,17.90
2016,09,18,09,42,18.00
2016,09,18,09,43,18.10
2016,09,18,09,44,18.20
2016,09,18,09,45,18.30
2016,09,18,09,46,18.30
2016,09,18,09,47,18.40
2016,09,18,09,48,18.40
2016,09,18,09,49,18.40
2016,09,18,09,50,18.50
2016,09,18,09,51,18.50
2016,09,18,09,52,18.60
2016,09,18,09,53,18.70
2016,09,18,09,54,18.80
2016,09,18,09,55,18.90
2016,09,18,09,56,19.00
2016,09,18,09,57,19.00
2016,09,18,09,58,19.10
2016,09,18,09,59,19.20
2016,09,18,10,00,19.30
2016,09,18,10,01,19.30
2016,09,18,10,02,19.40
2016,09,18,10,03,19.40
2016,09,18,10,04,19.50
2016,09,18,10,05,19.50
2016,09,18,10,06,19.60
2016,09,18,10,07,19.60
2016,09,18,10,08,19.60
2016,09,18,10,09,19.50
2016,09,18,10,10,19.50
2016,09,18,10,11,19.50
2016,09,18,10,12,19.40
2016,09,18,10,13,19.40
2016,09,18,10,14,19.40
2016,09,18,10,15,19.40
2016,09,18,10,16,19.40
2016,09,18,10,17,19.30
2016,09,18,10,18,19.30
2016,09,18,10,19,19.30
2016,09,18,10,20,19.20
2016,09,18,10,21,19.20
2016,09,18,10,22,19.20
2016,09,18,10,23,19.20
2016,09,18,10,24,19.30
2016,09,18,10,25,19.30
2016,09,18,10,26,19.30
2016,09,18,10,27,19.30
2016,09,18,10,28,19.30
2016,09,18,10,29,19.30
2016,09,18,10,30,19.30
2016,09,18,10,31,19.30
2016,09,18,10,32,19.30
2016,09,18,10,33,19.20
2016,09,18,10,34,19.20
2016,09,18,10,35,19.10
2016,09,18,10,36,19.10
2016,09,18,10,37,19.10
2016,09,18,10,38,19.10
2016,09,18,10,39,19.10
2016,09,18,10,40,19.10
2016,09,18,10,41,19.20
2016,09,18,10,42,19.20
2016,09,18,10,43,19.20
2016,09,18,10,44,19.30
2016,09,18,10,45,19.40
2016,09,18,10,46,19.40
2016,09,18,10,47,19.40
2016,09,18,10,48,19.40
2016,09,18,10,49,19.40
2016,09,18,10,50,19.40
2016,09,18,10,51,19.30
2016,09,18,10,52,19.30
2016,09,18,10,53,19.30
2016,09,18,10,54,19.20
2016,09,18,10,55,19.20
2016,09,18,10,56,19.10
2016,09,18,10,57,19.10
2016,09,18,10,58,19.10
2016,09,18,10,59,19.10
2016,09,18,11,00,19.00
2016,09,18,11,01,18.90
2016,09,18,11,02,18.90
2016,09,18,11,03,18.90
2016,09,18,11,04,18.90
2016,09,18,11,05,18.90
2016,09,18,11,06,18.90
2016,09,18,11,07,18.90
2016,09,18,11,08,18.90
2016,09,18,11,09,19.00
2016,09,18,11,10,19.00
2016,09,18,11,11,19.10
2016,09,18,11,12,19.20
2016,09,18,11,13,19.30
2016,09,18,11,14,19.30
2016,09,18,11,15,19.40
2016,09,18,11,16,19.40
2016,09,18,11,17,19.40
2016,09,18,11,18,19.30
2016,09,18,11,19,19.30
2016,09,18,11,20,19.40
2016,09,18,11,21,19.40
2016,09,18,11,22,19.50
2016,09,18,11,23,19.60
2016,09,18,11,24,19.60
2016,09,18,11,25,19.70
2016,09,18,11,26,19.70
2016,09,18,11,27,19.80
2016,09,18,11,28,19.90
2016,09,18,11,29,20.00
2016,09,18,11,30,20.20
2016,09,18,11,31,20.30
2016,09,18,11,32,20.50
2016,09,18,11,33,20.60
2016,09,18,11,34,20.80
2016,09,18,11,35,20.90
2016,09,18,11,36,21.10
2016,09,18,11,37,21.20
2016,09,18,11,38,21.20
2016,09,18,11,39,21.30
2016,09,18,11,40,21.30
2016,09,18,11,41,21.40
2016,09,18,11,42,21.50
2016,09,18,11,43,21.50
2016,09,18,11,44,21.60
2016,09,18,11,45,21.60
2016,09,18,11,46,21.60
2016,09,18,11,47,21.60
2016,09,18,11,48,21.60
2016,09,18,11,49,21.50
2016,09,18,11,50,21.60
2016,09,18,11,51,21.60
2016,09,18,11,52,21.60
2016,09,18,11,53,21.60
2016,09,18,11,54,21.60
2016,09,18,11,55,21.70
2016,09,18,11,56,21.80
2016,09,18,11,57,21.80
2016,09,18,11,58,22.00
2016,09,18,11,59,22.00
2016,09,18,12,00,22.10
2016,09,18,12,01,22.10
2016,09,18,12,02,22.10
2016,09,18,12,03,22.20
2016,09,18,12,04,22.30
2016,09,18,12,05,22.30
2016,09,18,12,06,22.40
2016,09,18,12,07,22.30
2016,09,18,12,08,22.30
2016,09,18,12,09,22.30
2016,09,18,12,10,22.20
2016,09,18,12,11,22.20
2016,09,18,12,12,22.10
2016,09,18,12,13,22.10
2016,09,18,12,14,22.10
2016,09,18,12,15,22.10
2016,09,18,12,16,22.10
2016,09,18,12,17,22.10
2016,09,18,12,18,22.10
2016,09,18,12,19,22.20
2016,09,18,12,20,22.20
2016,09,18,12,21,22.20
2016,09,18,12,22,22.20
2016,09,18,12,23,22.20
2016,09,18,12,24,22.30
2016,09,18,12,25,22.30
2016,09,18,12,26,22.30
2016,09,18,12,27,22.30
2016,09,18,12,28,22.30
2016,09,18,12,29,22.20
2016,09,18,12,30,22.20
2016,09,18,12,31,22.20
2016,09,18,12,32,22.20
2016,09,18,12,33,22.20
2016,09,18,12,34,22.30
2016,09,18,12,35,22.30
2016,09,18,12,36,22.30
2016,09,18,12,37,22.30
2016,09,18,12,38,22.30
2016,09,18,12,39,22.30
2016,09,18,12,40,22.40
2016,09,18,12,41,22.40
2016,09,18,12,42,22.40
2016,09,18,12,43,22.40
2016,09,18,12,44,22.40
2016,09,18,12,45,22.40
2016,09,18,12,46,22.40
2016,09,18,12,47,22.40
2016,09,18,12,48,22.50
2016,09,18,12,49,22.60
2016,09,18,12,50,22.60
2016,09,18,12,51,22.70
2016,09,18,12,52,22.80
2016,09,18,12,53,22.90
2016,09,18,12,54,23.00
2016,09,18,12,55,23.00
2016,09,18,12,56,23.00
2016,09,18,12,57,23.00
2016,09,18,12,58,23.00
2016,09,18,12,59,23.00
2016,09,18,13,00,23.00
2016,09,18,13,01,23.10
2016,09,18,13,02,23.10
2016,09,18,13,03,23.00
2016,09,18,13,04,23.00
2016,09,18,13,05,22.90
2016,09,18,13,06,23.00
2016,09,18,13,07,22.90
2016,09,18,13,08,23.00
2016,09,18,13,09,23.00
2016,09,18,13,10,23.00
2016,09,18,13,11,23.10
2016,09,18,13,12,23.10
2016,09,18,13,13,23.10
2016,09,18,13,14,23.10
2016,09,18,13,15,23.20
2016,09,18,13,16,23.20
2016,09,18,13,17,23.30
2016,09,18,13,18,23.30
2016,09,18,13,19,23.30
2016,09,18,13,20,23.30
2016,09,18,13,21,23.30
2016,09,18,13,22,23.40
2016,09,18,13,23,23.40
2016,09,18,13,24,23.40
2016,09,18,13,25,23.40
2016,09,18,13,26,23.30
2016,09,18,13,27,23.30
2016,09,18,13,28,23.30
2016,09,18,13,29,23.30
2016,09,18,13,30,23.30
2016,09,18,13,31,23.30
2016,09,18,13,32,23.30
2016,09,18,13,33,23.30
2016,09,18,13,34,23.40
2016,09,18,13,35,23.40
2016,09,18,13,36,23.40
2016,09,18,13,37,23.40
2016,09,18,13,38,23.40
2016,09,18,13,39,23.40
2016,09,18,13,40,23.40
2016,09,18,13,41,23.40
2016,09,18,13,42,23.30
2016,09,18,13,43,23.30
2016,09,18,13,44,23.30
2016,09,18,13,45,23.30
2016,09,18,13,46,23.30
2016,09,18,13,47,23.30
2016,09,18,13,48,23.40
2016,09,18,13,49,23.40
2016,09,18,13,50,23.40
2016,09,18,13,51,23.40
2016,09,18,13,52,23.50
2016,09,18,13,53,23.50
2016,09,18,13,54,23.50
2016,09,18,13,55,23.50
2016,09,18,13,56,23.50
2016,09,18,13,57,23.50
2016,09,18,13,58,23.60
2016,09,18,13,59,23.50
2016,09,18,14,00,23.50
2016,09,18,14,01,23.40
2016,09,18,14,02,23.30
2016,09,18,14,03,23.10
2016,09,18,14,04,23.00
2016,09,18,14,05,22.90
2016,09,18,14,06,22.80
2016,09,18,14,07,22.80
2016,09,18,14,08,22.70
2016,09,18,14,09,22.70
2016,09,18,14,10,22.60
2016,09,18,14,11,22.60
2016,09,18,14,12,22.60
2016,09,18,14,13,22.60
2016,09,18,14,14,22.60
2016,09,18,14,15,22.60
2016,09,18,14,16,22.60
2016,09,18,14,17,22.60
2016,09,18,14,18,22.50
2016,09,18,14,19,22.50
2016,09,18,14,20,22.50
2016,09,18,14,21,22.40
2016,09,18,14,22,22.40
2016,09,18,14,23,22.40
2016,09,18,14,24,22.30
2016,09,18,14,25,22.20
2016,09,18,14,26,22.10
2016,09,18,14,27,22.00
2016,09,18,14,28,21.90
2016,09,18,14,29,21.90
2016,09,18,14,30,21.80
2016,09,18,14,31,21.80
2016,09,18,14,32,21.80
2016,09,18,14,33,21.80
2016,09,18,14,34,21.80
2016,09,18,14,35,21.80
2016,09,18,14,36,21.80
2016,09,18,14,37,21.80
2016,09,18,14,38,21.80
2016,09,18,14,39,21.80
2016,09,18,14,40,21.80
2016,09,18,14,41,21.70
2016,09,18,14,42,21.70
2016,09,18,14,43,21.60
2016,09,18,14,44,21.50
2016,09,18,14,45,21.40
2016,09,18,14,46,21.20
2016,09,18,14,47,21.20
2016,09,18,14,48,21.10
2016,09,18,14,49,21.10
2016,09,18,14,50,21.10
2016,09,18,14,51,21.10
2016,09,18,14,52,21.10
2016,09,18,14,53,21.20
2016,09,18,14,54,21.20
2016,09,18,14,55,21.10
2016,09,18,14,56,21.10
2016,09,18,14,57,21.20
2016,09,18,14,58,21.20
2016,09,18,14,59,21.20
2016,09,18,15,00,21.20
2016,09,18,15,01,21.20
2016,09,18,15,02,21.10
2016,09,18,15,03,21.10
2016,09,18,15,04,21.10
2016,09,18,15,05,21.10
2016,09,18,15,06,21.10
2016,09,18,15,07,21.10
2016,09,18,15,08,21.00
2016,09,18,15,09,21.00
2016,09,18,15,10,20.90
2016,09,18,15,11,20.80
2016,09,18,15,12,20.80
2016,09,18,15,13,20.70
2016,09,18,15,14,20.60
2016,09,18,15,15,20.60
2016,09,18,15,16,20.50
2016,09,18,15,17,20.40
2016,09,18,15,18,20.30
2016,09,18,15,19,20.30
2016,09,18,15,20,20.20
2016,09,18,15,21,20.20
2016,09,18,15,22,20.10
2016,09,18,15,23,20.00
2016,09,18,15,24,19.90
2016,09,18,15,25,19.80
2016,09,18,15,26,19.70
2016,09,18,15,27,19.60
2016,09,18,15,28,19.50
2016,09,18,15,29,19.40
2016,09,18,15,30,19.40
2016,09,18,15,31,19.30
2016,09,18,15,32,19.30
2016,09,18,15,33,19.20
2016,09,18,15,34,19.20
2016,09,18,15,35,19.20
2016,09,18,15,36,19.20
2016,09,18,15,37,19.20
2016,09,18,15,38,19.20
2016,09,18,15,39,19.20
2016,09,18,15,40,19.30
2016,09,18,15,41,19.40
2016,09,18,15,42,19.50
2016,09,18,15,43,19.50
2016,09,18,15,44,19.60
2016,09,18,15,45,19.60
2016,09,18,15,46,19.70
2016,09,18,15,47,19.70
2016,09,18,15,48,19.70
2016,09,18,15,49,19.70
2016,09,18,15,50,19.60
2016,09,18,15,51,19.50
2016,09,18,15,52,19.40
2016,09,18,15,53,19.40
2016,09,18,15,54,19.30
2016,09,18,15,55,19.20
2016,09,18,15,56,19.10
2016,09,18,15,57,19.00
2016,09,18,15,58,18.90
2016,09,18,15,59,18.90
2016,09,18,16,00,18.80
2016,09,18,16,01,18.70
2016,09,18,16,02,18.70
2016,09,18,16,03,18.60
2016,09,18,16,04,18.50
2016,09,18,16,05,18.40
2016,09,18,16,06,18.40
2016,09,18,16,07,18.30
2016,09,18,16,08,18.30
2016,09,18,16,09,18.20
2016,09,18,16,10,18.20
2016,09,18,16,11,18.10
2016,09,18,16,12,18.10
2016,09,18,16,13,18.00
2016,09,18,16,14,18.00
2016,09,18,16,15,17.90
2016,09,18,16,16,17.90
2016,09,18,16,17,17.90
2016,09,18,16,18,17.80
2016,09,18,16,19,17.70
2016,09,18,16,20,17.70
2016,09,18,16,21,17.70
2016,09,18,16,22,17.70
2016,09,18,16,23,17.70
2016,09,18,16,24,17.70
2016,09,18,16,25,17.70
2016,09,18,16,26,17.70
2016,09,18,16,27,17.70
2016,09,18,16,28,17.70
2016,09,18,16,29,17.80
2016,09,18,16,30,17.80
2016,09,18,16,31,17.80
2016,09,18,16,32,17.80
2016,09,18,16,33,17.90
2016,09,18,16,34,17.90
2016,09,18,16,35,18.00
2016,09,18,16,36,18.10
2016,09,18,16,37,18.10
2016,09,18,16,38,18.20
2016,09,18,16,39,18.20
2016,09,18,16,40,18.30
2016,09,18,16,41,18.40
2016,09,18,16,42,18.40
2016,09,18,16,43,18.50
2016,09,18,16,44,18.50
2016,09,18,16,45,18.60
2016,09,18,16,46,18.60
2016,09,18,16,47,18.60
2016,09,18,16,48,18.60
2016,09,18,16,49,18.70
2016,09,18,16,50,18.70
2016,09,18,16,51,18.70
2016,09,18,16,52,18.70
2016,09,18,16,53,18.70
2016,09,18,16,54,18.70
2016,09,18,16,55,18.70
2016,09,18,16,56,18.70
2016,09,18,16,57,18.70
2016,09,18,16,58,18.70
2016,09,18,16,59,18.70
2016,09,18,17,00,18.70
2016,09,18,17,01,18.70
2016,09,18,17,02,18.70
2016,09,18,17,03,18.80
2016,09,18,17,04,18.80
2016,09,18,17,05,18.80
2016,09,18,17,06,18.80
2016,09,18,17,07,18.80
2016,09,18,17,08,18.80
2016,09,18,17,09,18.80
2016,09,18,17,10,18.80
2016,09,18,17,11,18.80
2016,09,18,17,12,18.80
2016,09,18,17,13,18.80
2016,09,18,17,14,18.80
2016,09,18,17,15,18.80
2016,09,18,17,16,18.80
2016,09,18,17,17,18.80
2016,09,18,17,18,18.80
2016,09,18,17,19,18.90
2016,09,18,17,20,18.90
2016,09,18,17,21,18.90
2016,09,18,17,22,18.90
2016,09,18,17,23,18.90
2016,09,18,17,24,19.00
2016,09,18,17,25,19.00
2016,09,18,17,26,19.10
2016,09,18,17,27,19.10
2016,09,18,17,28,19.10
2016,09,18,17,29,19.10
2016,09,18,17,30,19.10
2016,09,18,17,31,19.10
2016,09,18,17,32,19.10
2016,09,18,17,33,19.00
2016,09,18,17,34,19.00
2016,09,18,17,35,19.00
2016,09,18,17,36,18.90
2016,09,18,17,37,18.90
2016,09,18,17,38,18.90
2016,09,18,17,39,18.90
2016,09,18,17,40,18.80
2016,09,18,17,41,18.80
2016,09,18,17,42,18.80
2016,09,18,17,43,18.80
2016,09,18,17,44,18.80
2016,09,18,17,45,18.80
2016,09,18,17,46,18.80
2016,09,18,17,47,18.80
2016,09,18,17,48,18.80
2016,09,18,17,49,18.80
2016,09,18,17,50,18.90
2016,09,18,17,51,18.90
2016,09,18,17,52,18.90
2016,09,18,17,53,18.90
2016,09,18,17,54,18.90
2016,09,18,17,55,18.90
2016,09,18,17,56,18.90
2016,09,18,17,57,19.00
2016,09,18,17,58,19.00
2016,09,18,17,59,19.10
2016,09,18,18,00,19.10
2016,09,18,18,01,19.20
2016,09,18,18,02,19.20
2016,09,18,18,03,19.20
2016,09,18,18,04,19.20
2016,09,18,18,05,19.20
2016,09,18,18,06,19.20
2016,09,18,18,07,19.20
2016,09,18,18,08,19.20
2016,09,18,18,09,19.20
2016,09,18,18,10,19.20
2016,09,18,18,11,19.20
2016,09,18,18,12,19.20
2016,09,18,18,13,19.20
2016,09,18,18,14,19.10
2016,09,18,18,15,19.10
2016,09,18,18,16,19.10
2016,09,18,18,17,19.10
2016,09,18,18,18,19.10
2016,09,18,18,19,19.10
2016,09,18,18,20,19.00
2016,09,18,18,21,19.00
2016,09,18,18,22,19.00
2016,09,18,18,23,18.90
2016,09,18,18,24,18.90
2016,09,18,18,25,18.80
2016,09,18,18,26,18.70
2016,09,18,18,27,18.70
2016,09,18,18,28,18.60
2016,09,18,18,29,18.50
2016,09,18,18,30,18.50
2016,09,18,18,31,18.40
2016,09,18,18,32,18.30
2016,09,18,18,33,18.30
2016,09,18,18,34,18.20
2016,09,18,18,35,18.20
2016,09,18,18,36,18.20
2016,09,18,18,37,18.20
2016,09,18,18,38,18.10
2016,09,18,18,39,18.10
2016,09,18,18,40,18.00
2016,09,18,18,41,18.00
2016,09,18,18,42,18.00
2016,09,18,18,43,17.90
2016,09,18,18,44,17.90
2016,09,18,18,45,17.90
2016,09,18,18,46,17.80
2016,09,18,18,47,17.80
2016,09,18,18,48,17.80
2016,09,18,18,49,17.70
2016,09,18,18,50,17.70
2016,09,18,18,51,17.70
2016,09,18,18,52,17.60
2016,09,18,18,53,17.60
2016,09,18,18,54,17.60
2016,09,18,18,55,17.50
2016,09,18,18,56,17.50
2016,09,18,18,57,17.40
2016,09,18,18,58,17.40
2016,09,18,18,59,17.40
2016,09,18,19,00,17.30
2016,09,18,19,01,17.30
2016,09,18,19,02,17.20
2016,09,18,19,03,17.20
2016,09,18,19,04,17.20
2016,09,18,19,05,17.10
2016,09,18,19,06,17.10
2016,09,18,19,07,17.10
2016,09,18,19,08,17.00
2016,09,18,19,09,17.00
2016,09,18,19,10,17.00
2016,09,18,19,11,16.90
2016,09,18,19,12,16.90
2016,09,18,19,13,16.90
2016,09,18,19,14,16.80
2016,09,18,19,15,16.80
2016,09,18,19,16,16.80
2016,09,18,19,17,16.80
2016,09,18,19,18,16.70
2016,09,18,19,19,16.70
2016,09,18,19,20,16.70
2016,09,18,19,21,16.70
2016,09,18,19,22,16.60
2016,09,18,19,23,16.60
2016,09,18,19,24,16.60
2016,09,18,19,25,16.60
2016,09,18,19,26,16.60
2016,09,18,19,27,16.60
2016,09,18,19,28,16.60
2016,09,18,19,29,16.50
2016,09,18,19,30,16.50
2016,09,18,19,31,16.50
2016,09,18,19,32,16.40
2016,09,18,19,33,16.40
2016,09,18,19,34,16.40
2016,09,18,19,35,16.40
2016,09,18,19,36,16.40
2016,09,18,19,37,16.30
2016,09,18,19,38,16.30
2016,09,18,19,39,16.30
2016,09,18,19,40,16.30
2016,09,18,19,41,16.30
2016,09,18,19,42,16.30
2016,09,18,19,43,16.20
2016,09,18,19,44,16.20
2016,09,18,19,45,16.20
2016,09,18,19,46,16.20
2016,09,18,19,47,16.20
2016,09,18,19,48,16.20
2016,09,18,19,49,16.20
2016,09,18,19,50,16.20
2016,09,18,19,51,16.20
2016,09,18,19,52,16.20
2016,09,18,19,53,16.20
2016,09,18,19,54,16.10
2016,09,18,19,55,16.10
2016,09,18,19,56,16.10
2016,09,18,19,57,16.10
2016,09,18,19,58,16.10
2016,09,18,19,59,16.00
2016,09,18,20,00,16.00
2016,09,18,20,01,16.00
2016,09,18,20,02,16.00
2016,09,18,20,03,15.90
2016,09,18,20,04,15.90
2016,09,18,20,05,15.90
2016,09,18,20,06,15.90
2016,09,18,20,07,15.90
2016,09,18,20,08,15.90
2016,09,18,20,09,15.90
2016,09,18,20,10,15.90
2016,09,18,20,11,15.90
2016,09,18,20,12,15.90
2016,09,18,20,13,15.90
2016,09,18,20,14,15.80
2016,09,18,20,15,15.80
2016,09,18,20,16,15.80
2016,09,18,20,17,15.80
2016,09,18,20,18,15.90
2016,09,18,20,19,15.90
2016,09,18,20,20,15.90
2016,09,18,20,21,15.90
2016,09,18,20,22,15.90
2016,09,18,20,23,15.90
2016,09,18,20,24,15.80
2016,09,18,20,25,15.80
2016,09,18,20,26,15.80
2016,09,18,20,27,15.80
2016,09,18,20,28,15.80
2016,09,18,20,29,15.80
2016,09,18,20,30,15.80
2016,09,18,20,31,15.80
2016,09,18,20,32,15.80
2016,09,18,20,33,15.80
2016,09,18,20,34,15.80
2016,09,18,20,35,15.80
2016,09,18,20,36,15.80
2016,09,18,20,37,15.70
2016,09,18,20,38,15.70
2016,09,18,20,39,15.70
2016,09,18,20,40,15.70
2016,09,18,20,41,15.70
2016,09,18,20,42,15.70
2016,09,18,20,43,15.70
2016,09,18,20,44,15.70
2016,09,18,20,45,15.70
2016,09,18,20,46,15.70
2016,09,18,20,47,15.70
2016,09,18,20,48,15.70
2016,09,18,20,49,15.70
2016,09,18,20,50,15.70
2016,09,18,20,51,15.70
2016,09,18,20,52,15.70
2016,09,18,20,53,15.60
2016,09,18,20,54,15.60
2016,09,18,20,55,15.60
2016,09,18,20,56,15.60
2016,09,18,20,57,15.60
2016,09,18,20,58,15.60
2016,09,18,20,59,15.60
2016,09,18,21,00,15.60
2016,09,18,21,01,15.60
2016,09,18,21,02,15.60
2016,09,18,21,03,15.60
2016,09,18,21,04,15.60
2016,09,18,21,05,15.60
2016,09,18,21,06,15.60
2016,09,18,21,07,15.60
2016,09,18,21,08,15.60
2016,09,18,21,09,15.60
2016,09,18,21,10,15.60
2016,09,18,21,11,15.60
2016,09,18,21,12,15.60
2016,09,18,21,13,15.60
2016,09,18,21,14,15.60
2016,09,18,21,15,15.60
2016,09,18,21,16,15.60
2016,09,18,21,17,15.60
2016,09,18,21,18,15.60
2016,09,18,21,19,15.60
2016,09,18,21,20,15.50
2016,09,18,21,21,15.50
2016,09,18,21,22,15.50
2016,09,18,21,23,15.50
2016,09,18,21,24,15.50
2016,09,18,21,25,15.50
2016,09,18,21,26,15.50
2016,09,18,21,27,15.50
2016,09,18,21,28,15.40
2016,09,18,21,29,15.40
2016,09,18,21,30,15.40
2016,09,18,21,31,15.40
2016,09,18,21,32,15.40
2016,09,18,21,33,15.40
2016,09,18,21,34,15.40
2016,09,18,21,35,15.40
2016,09,18,21,36,15.30
2016,09,18,21,37,15.30
2016,09,18,21,38,15.30
2016,09,18,21,39,15.30
2016,09,18,21,40,15.30
2016,09,18,21,41,15.30
2016,09,18,21,42,15.30
2016,09,18,21,43,15.30
2016,09,18,21,44,15.30
2016,09,18,21,45,15.30
2016,09,18,21,46,15.40
2016,09,18,21,47,15.40
2016,09,18,21,48,15.40
2016,09,18,21,49,15.40
2016,09,18,21,50,15.40
2016,09,18,21,51,15.40
2016,09,18,21,52,15.40
2016,09,18,21,53,15.40
2016,09,18,21,54,15.40
2016,09,18,21,55,15.40
2016,09,18,21,56,15.50
2016,09,18,21,57,15.50
2016,09,18,21,58,15.50
2016,09,18,21,59,15.50
2016,09,18,22,00,15.50
2016,09,18,22,01,15.50
2016,09,18,22,02,15.40
2016,09,18,22,03,15.40
2016,09,18,22,04,15.40
2016,09,18,22,05,15.40
2016,09,18,22,06,15.40
2016,09,18,22,07,15.40
2016,09,18,22,08,15.40
2016,09,18,22,09,15.40
2016,09,18,22,10,15.40
2016,09,18,22,11,15.40
2016,09,18,22,12,15.40
2016,09,18,22,13,15.30
2016,09,18,22,14,15.30
2016,09,18,22,15,15.30
2016,09,18,22,16,15.30
2016,09,18,22,17,15.30
2016,09,18,22,18,15.30
2016,09,18,22,19,15.30
2016,09,18,22,20,15.20
2016,09,18,22,21,15.20
2016,09,18,22,22,15.20
2016,09,18,22,23,15.20
2016,09,18,22,24,15.20
2016,09,18,22,25,15.20
2016,09,18,22,26,15.20
2016,09,18,22,27,15.20
2016,09,18,22,28,15.20
2016,09,18,22,29,15.20
2016,09,18,22,30,15.20
2016,09,18,22,31,15.20
